DW7126 Lourinha PT current weather conditions

sailwx.info

Wind from 355 at 4 knots gusting 9

Air temperature 22.8° C
Dewpoint 17.9° C

Last reported at 2016-Jul-28 17:51 UTC.
Time now 2016-Jul-28 18:23 UTC

Location: N 39°14' W 009°18'.
View on Google Maps.

See reports from other nearby stations

  
Tides and Currents Weather Stations Pressure Air Temp Water Temp Dewpoint Dewpoint Depression Visibility Wind Speed Wind Dir Waves Ship Positions
date/time (UTC)wind fromknots sea level pressurealtimeterstation pressurevisibilityair tempwater tempwave heightnotes
2016-Jul-28 17:51 355 4 gusting 9 22.8
2016-Jul-28 17:45 335 5 gusting 9 22.8
2016-Jul-28 17:40 336 5 gusting 9 22.2
2016-Jul-28 17:36 325 6 gusting 9 22.2
2016-Jul-28 17:31 333 6 gusting 9 22.2
2016-Jul-28 17:25 330 5 gusting 10 22.2
2016-Jul-28 17:20 315 5 gusting 10 21.7
2016-Jul-28 17:16 360 6 gusting 9 22.2
2016-Jul-28 17:11 334 6 gusting 10 22.8
2016-Jul-28 17:05 335 5 gusting 10 22.8
2016-Jul-28 17:00 360 6 gusting 9 23.3
2016-Jul-28 16:55 310 4 gusting 8 23.3
2016-Jul-28 16:50 325 6 gusting 9 23.3
2016-Jul-28 16:45 313 6 gusting 9 23.3
2016-Jul-28 16:40 324 5 gusting 8 23.3
2016-Jul-28 16:36 293 5 gusting 8 23.3
2016-Jul-28 16:30 283 5 gusting 8 22.8
2016-Jul-28 16:25 314 6 gusting 8 23.3
2016-Jul-28 16:21 314 6 gusting 7 23.3
2016-Jul-28 16:15 316 4 gusting 9 23.3
2016-Jul-28 16:10 311 5 gusting 9 23.9
2016-Jul-28 16:05 311 5 gusting 9 23.9
2016-Jul-28 16:00 344 6 gusting 9 23.9
2016-Jul-28 15:55 302 6 gusting 8 23.3
2016-Jul-28 15:50 338 6 gusting 10 23.9
2016-Jul-28 15:45 306 7 gusting 10 23.9
2016-Jul-28 15:41 324 6 gusting 9 23.3
2016-Jul-28 15:35 323 6 gusting 10 23.3
2016-Jul-28 15:30 360 6 gusting 10 22.8
2016-Jul-28 15:25 324 6 gusting 10 22.8
2016-Jul-28 15:20 330 7 gusting 11 22.2
2016-Jul-28 15:16 317 7 gusting 11 22.8
2016-Jul-28 15:11 347 7 gusting 11 22.8
2016-Jul-28 15:05 316 6 gusting 11 22.8
2016-Jul-28 15:00 313 6 gusting 12 22.8
2016-Jul-28 14:55 281 5 gusting 12 22.2
2016-Jul-28 14:50 310 7 gusting 11 22.2
2016-Jul-28 14:46 335 7 gusting 11 22.2
2016-Jul-28 14:41 360 6 gusting 11 22.2
2016-Jul-28 14:35 360 7 gusting 10 22.2
2016-Jul-28 14:30 316 6 gusting 9 22.2
2016-Jul-28 14:25 313 6 gusting 9 22.2
2016-Jul-28 14:20 276 6 gusting 10 22.2
2016-Jul-28 14:15 334 6 gusting 10 22.8
2016-Jul-28 14:10 321 6 gusting 10 22.8
2016-Jul-28 14:06 323 5 gusting 10 22.8
2016-Jul-28 14:01 289 7 gusting 10 22.8
2016-Jul-28 13:55 324 6 gusting 9 22.8
2016-Jul-28 13:50 321 4 gusting 9 22.2
2016-Jul-28 13:46 337 6 gusting 11 22.2
2016-Jul-28 13:40 300 6 gusting 10 21.7
2016-Jul-28 13:35 279 5 gusting 9 22.2
2016-Jul-28 13:31 298 5 gusting 10 22.2
2016-Jul-28 13:25 360 6 gusting 10 22.2
2016-Jul-28 13:20 333 6 gusting 10 22.2
2016-Jul-28 13:15 348 4 gusting 10 21.7
2016-Jul-28 13:10 360 6 gusting 10 21.1
2016-Jul-28 13:05 278 7 gusting 10 21.7
2016-Jul-28 13:00 360 4 gusting 10 21.1
2016-Jul-28 12:56 275 6 gusting 11 21.7
2016-Jul-28 12:50 292 6 gusting 11 21.7
2016-Jul-28 12:45 360 5 gusting 9 21.7
2016-Jul-28 12:41 298 6 gusting 10 21.7
2016-Jul-28 12:35 278 6 gusting 10 21.7
2016-Jul-28 12:30 281 4 gusting 9 21.7
2016-Jul-28 12:26 360 3 gusting 9 21.7
2016-Jul-28 12:20 295 5 gusting 10 22.2
2016-Jul-28 12:16 284 6 gusting 10 22.2
2016-Jul-28 12:11 286 5 gusting 9 21.7
2016-Jul-28 12:05 295 3 gusting 9 21.7
2016-Jul-28 12:01 305 5 gusting 7 21.7
2016-Jul-28 11:55 311 5 gusting 8 21.7
2016-Jul-28 11:50 299 5 gusting 8 21.7
2016-Jul-28 11:46 315 3 gusting 7 21.7
2016-Jul-28 11:31 360 4 gusting 7 21.7
2016-Jul-28 11:21 298 5 gusting 8 21.1
2016-Jul-28 11:15 296 5 gusting 8 21.7
2016-Jul-28 11:10 329 5 gusting 8 21.7
2016-Jul-28 11:06 307 5 gusting 9 21.1
2016-Jul-28 11:00 360 6 gusting 9 21.1
2016-Jul-28 10:55 360 6 gusting 8 21.1
2016-Jul-28 10:51 315 4 gusting 9 21.1
2016-Jul-28 10:45 360 6 gusting 9 21.1
2016-Jul-28 10:40 300 5 gusting 8 21.1
2016-Jul-28 10:36 315 6 gusting 8 21.1
2016-Jul-28 10:31 326 4 gusting 8 21.1
2016-Jul-28 10:25 360 4 gusting 8 21.1
2016-Jul-28 10:20 326 4 gusting 7 20.6
2016-Jul-28 10:15 296 5 gusting 7 20.6
2016-Jul-28 10:10 333 4 gusting 7 20.6
2016-Jul-28 10:05 333 6 gusting 7 20.6
2016-Jul-28 10:00 342 3 gusting 6 20.6
2016-Jul-28 09:56 332 4 gusting 8 20.6
2016-Jul-28 09:50 349 1 gusting 5 20.0
2016-Jul-28 09:45 005 3 gusting 6 20.6
2016-Jul-28 09:40 033 3 gusting 6 20.0
2016-Jul-28 09:36 298 4 gusting 6 20.0
2016-Jul-28 09:25 355 3 gusting 6 20.0
2016-Jul-28 09:16 341 3 gusting 6 18.9
2016-Jul-28 09:11 348 4 gusting 6 18.9
2016-Jul-28 09:05 005 2 gusting 6 19.4
2016-Jul-28 09:00 341 3 gusting 7 18.9
2016-Jul-28 08:56 346 4 gusting 6 18.9
2016-Jul-28 08:50 035 1 gusting 6 18.9
2016-Jul-28 08:46 025 1 gusting 7 18.9
2016-Jul-28 08:41 039 2 gusting 7 18.9
2016-Jul-28 08:35 029 3 gusting 6 18.3
2016-Jul-28 08:30 005 4 gusting 6 18.3
2016-Jul-28 08:26 043 3 gusting 7 18.3
2016-Jul-28 08:21 036 2 gusting 7 18.3
2016-Jul-28 08:15 015 5 gusting 6 18.3
2016-Jul-28 08:10 044 3 gusting 6 18.3
2016-Jul-28 08:06 040 4 gusting 7 17.8
2016-Jul-28 08:00 015 4 gusting 7 17.8
2016-Jul-28 07:55 009 4 gusting 8 17.8
2016-Jul-28 07:50 047 6 gusting 8 17.8
2016-Jul-28 07:45 014 6 gusting 9 17.8
2016-Jul-28 07:41 031 5 gusting 9 17.8
2016-Jul-28 07:35 310 3 gusting 7 17.8
2016-Jul-28 07:31 344 4 gusting 7 17.8
2016-Jul-28 07:25 015 4 gusting 8 17.8
2016-Jul-28 07:20 021 6 gusting 10 17.2
2016-Jul-28 07:15 035 7 gusting 11 17.2
2016-Jul-28 07:10 360 6 gusting 11 17.2
2016-Jul-28 07:05 321 6 gusting 8 17.2
2016-Jul-28 07:01 355 5 gusting 8 17.2
2016-Jul-28 06:55 339 3 gusting 6 17.2
2016-Jul-28 06:50 009 3 gusting 7 17.2
2016-Jul-28 06:46 030 3 gusting 7 17.2
2016-Jul-28 06:41 010 2 gusting 6 17.2
2016-Jul-28 06:35 341 5 gusting 6 17.2
2016-Jul-28 06:30 333 3 gusting 5 17.2
2016-Jul-28 06:25 355 2 gusting 6 17.2
2016-Jul-28 06:20 332 4 gusting 6 17.2
2016-Jul-28 06:16 332 2 gusting 6 17.2
2016-Jul-28 06:10 005 0 gusting 6 17.2
2016-Jul-28 06:05 335 3 gusting 6 17.2
2016-Jul-28 06:01 347 3 gusting 6 16.7
2016-Jul-28 05:55 015 0 gusting 5 16.7
2016-Jul-28 05:51 015 0 gusting 5 16.7
2016-Jul-28 05:45 015 16.7
2016-Jul-28 05:40 015 0 gusting 2 16.7
2016-Jul-28 05:35 016 16.7
2016-Jul-28 05:31 017 16.7
2016-Jul-28 05:25 017 0 gusting 3 16.7
2016-Jul-28 05:21 017 16.7
2016-Jul-28 05:15 017 0 gusting 2 16.7
2016-Jul-28 05:10 019 16.7
2016-Jul-28 05:06 019 16.7
2016-Jul-28 05:00 019 16.7
2016-Jul-28 04:55 019 16.7
2016-Jul-28 04:50 019 16.7
2016-Jul-28 04:46 019 16.7
2016-Jul-28 04:40 019 16.7
2016-Jul-28 04:35 019 16.7
2016-Jul-28 04:30 019 16.7
2016-Jul-28 04:26 019 16.7
2016-Jul-28 04:21 019 16.7
2016-Jul-28 04:15 019 2 gusting 5 16.7
2016-Jul-28 04:10 026 0 gusting 2 16.7
2016-Jul-28 04:05 026 16.7
2016-Jul-28 04:00 026 16.7
2016-Jul-28 03:55 026 16.7
2016-Jul-28 03:50 026 16.7
2016-Jul-28 03:46 025 16.7
2016-Jul-28 03:40 020 1 gusting 3 16.7
2016-Jul-28 03:35 022 1 gusting 5 16.7
2016-Jul-28 03:31 021 2 gusting 5 16.7
2016-Jul-28 03:25 025 1 gusting 6 16.7
2016-Jul-28 03:20 022 3 gusting 6 16.7
2016-Jul-28 03:16 017 3 gusting 6 17.2
2016-Jul-28 03:10 020 3 gusting 5 17.2
2016-Jul-28 03:05 019 2 gusting 6 17.2
2016-Jul-28 03:00 021 3 gusting 6 17.2
2016-Jul-28 02:56 022 3 gusting 6 17.2
2016-Jul-28 02:50 014 3 gusting 6 17.2
2016-Jul-28 02:45 013 1 gusting 5 17.2
2016-Jul-28 02:41 005 1 gusting 5 17.2
2016-Jul-28 02:35 005 1 gusting 4 17.2
2016-Jul-28 02:31 005 0 gusting 3 17.2
2016-Jul-28 02:26 005 17.2
2016-Jul-28 02:21 005 17.2
2016-Jul-28 02:15 010 2 gusting 6 17.2
2016-Jul-28 02:10 015 1 gusting 6 17.2
2016-Jul-28 02:05 019 1 gusting 5 17.2
2016-Jul-28 02:00 017 2 gusting 5 17.2
2016-Jul-28 01:56 014 0 gusting 5 17.2
2016-Jul-28 01:51 019 1 gusting 5 17.2
2016-Jul-28 01:45 019 1 gusting 5 17.2
2016-Jul-28 01:41 019 2 gusting 6 17.2
2016-Jul-28 01:35 021 3 gusting 6 17.2
2016-Jul-28 01:31 013 2 gusting 6 17.2
2016-Jul-28 01:25 015 2 gusting 6 17.2
2016-Jul-28 01:20 011 2 gusting 6 17.2
2016-Jul-28 01:16 013 3 gusting 6 17.2
2016-Jul-28 01:10 027 3 gusting 6 17.2
2016-Jul-28 01:05 020 3 gusting 6 17.2
2016-Jul-28 01:01 026 3 gusting 6 17.2
2016-Jul-28 00:55 009 17.2
2016-Jul-28 00:50 010 3 gusting 6 17.2
2016-Jul-28 00:46 015 2 gusting 6 17.2
2016-Jul-28 00:40 005 2 gusting 5 17.2
2016-Jul-28 00:35 014 0 gusting 6 17.2
2016-Jul-28 00:31 015 2 gusting 6 17.2
2016-Jul-28 00:25 005 1 gusting 5 17.2
2016-Jul-28 00:20 005 2 gusting 4 17.2
2016-Jul-28 00:16 360 0 gusting 3 17.2
2016-Jul-28 00:12 005 0 gusting 3 17.2
2016-Jul-28 00:05 005 0 gusting 5 17.2
2016-Jul-28 00:00 005 1 gusting 5 17.2
2016-Jul-27 23:55 005 17.2
2016-Jul-27 23:51 005 0 gusting 4 17.2
2016-Jul-27 23:45 005 0 gusting 3 17.2
2016-Jul-27 23:40 005 0 gusting 4 17.2
2016-Jul-27 23:35 005 0 gusting 3 17.2
2016-Jul-27 23:30 005 17.2
2016-Jul-27 23:25 005 17.2
2016-Jul-27 23:20 005 17.2
2016-Jul-27 23:16 005 0 gusting 3 17.2
2016-Jul-27 23:10 005 0 gusting 3 17.2
2016-Jul-27 23:06 005 1 gusting 5 17.2
2016-Jul-27 23:01 009 0 gusting 5 17.2
2016-Jul-27 22:55 005 17.2
2016-Jul-27 22:51 005 17.2
2016-Jul-27 22:45 005 0 gusting 2 17.2
2016-Jul-27 22:40 005 17.2
2016-Jul-27 22:35 005 17.2
2016-Jul-27 22:30 005 17.2
2016-Jul-27 22:26 005 17.2
2016-Jul-27 22:21 005 0 gusting 4 17.2
2016-Jul-27 22:16 005 17.2
2016-Jul-27 22:10 005 17.2
2016-Jul-27 22:05 005 17.2
2016-Jul-27 22:01 005 1 gusting 3 17.2
2016-Jul-27 21:55 005 17.8
2016-Jul-27 21:50 005 1 gusting 3 17.8
2016-Jul-27 21:46 005 0 gusting 3 17.8
2016-Jul-27 21:40 005 0 gusting 3 17.8
2016-Jul-27 21:35 005 1 gusting 3 17.8
2016-Jul-27 21:31 013 1 gusting 3 17.8
2016-Jul-27 21:26 014 0 gusting 3 17.8
2016-Jul-27 21:20 013 0 gusting 4 17.8
2016-Jul-27 21:15 013 2 gusting 4 17.8
2016-Jul-27 21:10 014 1 gusting 3 17.8
2016-Jul-27 21:05 015 0 gusting 2 17.8
2016-Jul-27 21:00 015 17.8
2016-Jul-27 20:55 016 1 gusting 4 17.8
2016-Jul-27 20:50 016 0 gusting 7 17.8
2016-Jul-27 20:46 016 1 gusting 7 18.3
2016-Jul-27 20:40 009 1 gusting 6 18.3
2016-Jul-27 20:35 005 1 gusting 6 18.3
2016-Jul-27 20:31 013 3 gusting 6 18.3
2016-Jul-27 20:25 360 2 gusting 6 18.3
2016-Jul-27 20:20 005 4 gusting 6 18.3
2016-Jul-27 20:16 005 4 gusting 7 18.3
2016-Jul-27 20:11 030 3 gusting 6 18.3
2016-Jul-27 20:05 019 2 gusting 6 18.3
2016-Jul-27 20:01 030 2 gusting 8 18.9
2016-Jul-27 19:55 005 4 gusting 8 18.9
2016-Jul-27 19:50 344 4 gusting 9 18.9
2016-Jul-27 19:45 034 5 gusting 9 18.9
2016-Jul-27 19:40 010 5 gusting 11 18.9
2016-Jul-27 19:36 025 7 gusting 11 19.4
2016-Jul-27 19:31 026 3 gusting 10 19.4
2016-Jul-27 19:25 029 7 gusting 11 19.4
2016-Jul-27 19:20 011 6 gusting 10 20.0
2016-Jul-27 19:16 012 5 gusting 11 20.0
2016-Jul-27 19:11 360 7 gusting 13 20.0
2016-Jul-27 19:05 025 4 gusting 12 20.0
2016-Jul-27 19:00 024 6 gusting 12 20.0
2016-Jul-27 18:56 360 6 gusting 12 20.6
2016-Jul-27 18:50 360 7 gusting 13 20.6
2016-Jul-27 18:46 047 9 gusting 13 20.6
2016-Jul-27 18:40 031 7 gusting 12 20.6
2016-Jul-27 18:36 015 7 gusting 12 20.6
2016-Jul-27 18:30 022 6 gusting 11 20.6
2016-Jul-27 18:25 009 6 gusting 11 21.1
2016-Jul-27 18:20 360 7 gusting 11 21.1
2016-Jul-27 18:15 021 7 gusting 11 21.1
2016-Jul-27 18:10 028 7 gusting 14 21.1
2016-Jul-27 18:05 034 7 gusting 14 21.7
2016-Jul-27 18:01 355 7 gusting 13 21.7
2016-Jul-27 17:55 044 7 gusting 13 21.7
2016-Jul-27 17:50 014 7 gusting 13 21.7
2016-Jul-27 17:46 015 9 gusting 13 21.7
2016-Jul-27 17:40 025 6 gusting 13 21.7
2016-Jul-27 17:36 334 6 gusting 11 21.7
2016-Jul-27 17:30 009 7 gusting 13 22.2
2016-Jul-27 17:25 355 7 gusting 13 21.7
2016-Jul-27 17:20 009 6 gusting 13 21.7
2016-Jul-27 17:16 360 6 gusting 12 22.2
2016-Jul-27 17:11 360 6 gusting 13 22.2
2016-Jul-27 17:05 326 8 gusting 13 22.2
2016-Jul-27 17:01 026 8 gusting 13 22.2
2016-Jul-27 16:55 020 7 gusting 13 22.8
2016-Jul-27 16:51 015 9 gusting 13 22.2
2016-Jul-27 16:45 005 7 gusting 13 22.2
2016-Jul-27 16:40 019 6 gusting 13 22.8
2016-Jul-27 16:35 323 7 gusting 13 22.8
2016-Jul-27 16:30 360 7 gusting 13 22.8
2016-Jul-27 16:26 034 9 gusting 13 22.2
2016-Jul-27 16:20 024 7 gusting 15 22.2
2016-Jul-27 16:16 028 8 gusting 15 22.2
2016-Jul-27 16:11 360 8 gusting 14 22.2
2016-Jul-27 16:05 020 7 gusting 14 22.8
2016-Jul-27 16:01 028 7 gusting 13 23.3
2016-Jul-27 15:55 005 7 gusting 13 22.8
2016-Jul-27 15:50 340 6 gusting 16 22.8
2016-Jul-27 15:45 360 10 gusting 16 22.2
2016-Jul-27 15:40 022 9 gusting 14 22.2
2016-Jul-27 15:35 344 6 gusting 14 22.8
2016-Jul-27 15:31 346 9 gusting 14 22.8
2016-Jul-27 15:25 350 7 gusting 14 22.8
2016-Jul-27 15:20 014 9 gusting 14 22.8
2016-Jul-27 15:15 032 5 gusting 13 22.8
2016-Jul-27 15:10 355 7 gusting 12 22.8
2016-Jul-27 15:06 338 6 gusting 16 22.8
2016-Jul-27 15:00 027 7 gusting 16 22.8
2016-Jul-27 14:55 355 7 gusting 13 22.8
2016-Jul-27 14:50 360 6 gusting 13 23.3
2016-Jul-27 14:45 331 7 gusting 13 23.3
2016-Jul-27 14:40 336 7 gusting 13 23.3
2016-Jul-27 14:36 344 6 gusting 11 23.3
2016-Jul-27 14:30 012 6 gusting 13 23.3
2016-Jul-27 14:25 329 7 gusting 13 22.8
2016-Jul-27 14:20 320 6 gusting 13 23.3
2016-Jul-27 14:16 317 6 gusting 13 23.3
2016-Jul-27 14:10 021 8 gusting 13 22.8
2016-Jul-27 14:05 327 6 gusting 13 22.8
2016-Jul-27 14:01 351 8 gusting 13 22.8
2016-Jul-27 13:55 337 7 gusting 12 22.8
2016-Jul-27 13:50 360 8 gusting 15 22.8
2016-Jul-27 13:45 026 10 gusting 15 22.2
2016-Jul-27 13:40 360 8 gusting 12 22.2
2016-Jul-27 13:35 005 8 gusting 13 22.8
2016-Jul-27 13:30 330 8 gusting 13 22.8
2016-Jul-27 13:25 336 6 gusting 13 22.8
2016-Jul-27 13:20 320 6 gusting 13 22.8
2016-Jul-27 13:15 360 9 gusting 13 22.8
2016-Jul-27 13:11 017 6 gusting 11 22.8
2016-Jul-27 13:05 019 6 gusting 12 22.8
2016-Jul-27 13:00 344 8 gusting 13 22.2
2016-Jul-27 12:55 009 6 gusting 12 22.8
2016-Jul-27 12:50 018 6 gusting 11 22.2
2016-Jul-27 12:45 346 6 gusting 13 22.2
2016-Jul-27 12:40 014 8 gusting 13 22.2
2016-Jul-27 12:36 045 8 gusting 13 22.2
2016-Jul-27 12:30 334 6 gusting 13 21.7
2016-Jul-27 12:26 321 6 gusting 12 21.7
2016-Jul-27 12:21 360 6 gusting 13 21.7
2016-Jul-27 12:15 019 8 gusting 13 21.7
2016-Jul-27 12:11 360 6 gusting 11 21.7
2016-Jul-27 12:05 011 6 gusting 13 21.7
2016-Jul-27 12:00 019 7 gusting 13 21.7
2016-Jul-27 11:55 028 6 gusting 13 21.1
2016-Jul-27 11:50 020 9 gusting 13 21.1
2016-Jul-27 11:46 027 6 gusting 10 20.6
2016-Jul-27 11:41 032 5 gusting 10 20.0
2016-Jul-27 11:35 360 6 gusting 11 20.0
2016-Jul-27 11:30 024 7 gusting 12 19.4
2016-Jul-27 11:25 009 6 gusting 12 18.9
2016-Jul-27 11:21 009 6 gusting 11 18.9
2016-Jul-27 11:15 016 6 gusting 11 18.3
2016-Jul-27 11:10 034 6 gusting 12 18.3
2016-Jul-27 11:05 355 8 gusting 12 18.3
2016-Jul-27 11:00 040 7 gusting 12 18.3
2016-Jul-27 10:55 032 7 gusting 13 18.3
2016-Jul-27 10:50 022 6 gusting 13 18.3
2016-Jul-27 10:46 023 6 gusting 12 18.3
2016-Jul-27 10:41 024 7 gusting 12 18.3
2016-Jul-27 10:35 038 8 gusting 13 18.3
2016-Jul-27 10:31 360 8 gusting 13 18.3
2016-Jul-27 10:25 019 7 gusting 10 18.3
2016-Jul-27 10:20 029 6 gusting 11 18.3
2016-Jul-27 10:15 017 6 gusting 11 18.3
2016-Jul-27 10:10 021 7 gusting 11 18.9
2016-Jul-27 10:06 355 5 gusting 9 18.9
2016-Jul-27 10:01 032 5 gusting 11 18.9
2016-Jul-27 09:55 031 6 gusting 11 18.9
2016-Jul-27 09:50 016 6 gusting 10 18.9
2016-Jul-27 09:45 338 4 gusting 9 18.3
2016-Jul-27 09:40 018 6 gusting 9 18.3
2016-Jul-27 09:35 355 6 gusting 9 18.3
2016-Jul-27 09:30 005 5 gusting 8 18.3
2016-Jul-27 09:25 016 6 gusting 8 17.8
2016-Jul-27 09:20 012 5 gusting 9 17.8
2016-Jul-27 09:15 360 5 gusting 9 17.8
2016-Jul-27 09:10 005 5 gusting 10 17.8
2016-Jul-27 09:05 021 5 gusting 10 17.8
2016-Jul-27 09:01 022 5 gusting 9 17.8
2016-Jul-27 08:55 024 6 gusting 9 17.8
2016-Jul-27 08:50 032 6 gusting 9 17.8
2016-Jul-27 08:46 049 5 gusting 9 17.8
2016-Jul-27 08:40 360 4 gusting 10 17.8
2016-Jul-27 08:35 342 5 gusting 12 17.8
2016-Jul-27 08:31 028 8 gusting 12 17.8
2016-Jul-27 08:25 031 6 gusting 12 17.8
2016-Jul-27 08:20 009 7 gusting 11 17.8
2016-Jul-27 08:15 331 5 gusting 13 17.8
2016-Jul-27 08:10 333 8 gusting 13 17.8
2016-Jul-27 08:06 349 5 gusting 10 17.8
2016-Jul-27 08:01 316 6 gusting 10 17.8
2016-Jul-27 07:55 319 6 gusting 11 17.8
2016-Jul-27 07:51 338 7 gusting 11 17.8
2016-Jul-27 07:45 337 6 gusting 11 17.8
2016-Jul-27 07:41 355 6 gusting 10 17.8
2016-Jul-27 07:36 334 4 gusting 11 17.8
2016-Jul-27 07:30 355 6 gusting 13 17.8
2016-Jul-27 07:25 355 7 gusting 11 17.8
2016-Jul-27 07:20 339 7 gusting 10 17.8
2016-Jul-27 07:15 346 5 gusting 10 17.8
2016-Jul-27 07:10 345 5 gusting 10 17.8
2016-Jul-27 07:06 337 6 gusting 12 17.8
2016-Jul-27 07:00 360 7 gusting 12 17.8
2016-Jul-27 06:55 340 8 gusting 11 17.8
2016-Jul-27 06:50 334 6 gusting 9 17.8
2016-Jul-27 06:45 360 6 gusting 10 17.8
2016-Jul-27 06:40 340 6 gusting 10 17.8
2016-Jul-27 06:36 332 4 gusting 8 17.8
2016-Jul-27 06:30 318 6 gusting 8 17.8
2016-Jul-27 06:26 344 4 gusting 10 17.8
2016-Jul-27 06:20 017 6 gusting 10 17.8
2016-Jul-27 06:16 350 5 gusting 10 17.8
2016-Jul-27 06:11 009 4 gusting 10 17.8
2016-Jul-27 06:05 338 5 gusting 7 17.2
2016-Jul-27 06:00 349 3 gusting 9 17.2
2016-Jul-27 05:55 342 4 gusting 9 17.2
2016-Jul-27 05:50 331 5 gusting 9 17.2
2016-Jul-27 05:45 333 5 gusting 6 17.2
2016-Jul-27 05:40 323 3 gusting 8 17.2
2016-Jul-27 05:36 344 4 gusting 8 17.2
2016-Jul-27 05:30 348 4 gusting 8 17.2
2016-Jul-27 05:25 338 5 gusting 7 17.2
2016-Jul-27 05:21 336 5 gusting 7 17.2
2016-Jul-27 05:15 340 6 gusting 8 17.2
2016-Jul-27 05:10 325 5 gusting 9 17.2
2016-Jul-27 05:06 333 4 gusting 9 17.8
2016-Jul-27 05:00 341 5 gusting 10 17.8
2016-Jul-27 04:55 334 5 gusting 10 17.8
2016-Jul-27 04:51 347 6 gusting 10 17.8
2016-Jul-27 04:45 333 6 gusting 10 17.8
2016-Jul-27 04:40 355 4 gusting 10 17.8
2016-Jul-27 04:35 355 6 gusting 10 17.8
2016-Jul-27 04:31 346 5 gusting 10 17.8
2016-Jul-27 04:25 339 6 gusting 9 17.8
2016-Jul-27 04:21 333 2 gusting 8 17.8
2016-Jul-27 04:15 333 4 gusting 8 17.8
2016-Jul-27 04:10 350 6 gusting 9 17.8
2016-Jul-27 04:05 351 5 gusting 13 17.8
2016-Jul-27 04:00 018 6 gusting 9 17.8
2016-Jul-27 03:55 355 3 gusting 11 17.8
2016-Jul-27 03:50 017 7 gusting 11 17.8
2016-Jul-27 03:45 012 5 gusting 11 17.8
2016-Jul-27 03:41 355 4 gusting 11 17.8
2016-Jul-27 03:35 017 5 gusting 9 17.8
2016-Jul-27 03:30 016 4 gusting 13 17.8
2016-Jul-27 03:25 329 6 gusting 13 17.8
2016-Jul-27 03:20 022 6 gusting 11 17.8
2016-Jul-27 03:15 009 5 gusting 10 18.3
2016-Jul-27 03:10 005 6 gusting 10 17.8
2016-Jul-27 03:06 344 5 gusting 6 18.3
2016-Jul-27 03:00 016 4 gusting 10 18.3
2016-Jul-27 02:55 019 6 gusting 10 17.8
2016-Jul-27 02:50 011 6 gusting 12 17.8
2016-Jul-27 02:45 016 6 gusting 12 17.8
2016-Jul-27 02:40 015 6 gusting 11 18.3
2016-Jul-27 02:36 024 6 gusting 13 17.8
2016-Jul-27 02:30 349 8 gusting 13 17.8
2016-Jul-27 02:25 024 4 gusting 9 18.3
2016-Jul-27 02:21 018 5 gusting 8 18.3
2016-Jul-27 02:15 355 6 gusting 12 18.3
2016-Jul-27 02:10 040 6 gusting 12 18.3
2016-Jul-27 02:05 009 6 gusting 12 18.3
2016-Jul-27 02:00 026 5 gusting 12 18.3
2016-Jul-27 01:55 349 6 gusting 11 18.3
2016-Jul-27 01:50 032 6 gusting 11 18.3
2016-Jul-27 01:46 029 7 gusting 11 18.3
2016-Jul-27 01:40 021 5 gusting 10 18.3
2016-Jul-27 01:35 037 6 gusting 11 18.3
2016-Jul-27 01:30 342 7 gusting 11 18.3
2016-Jul-27 01:25 030 6 gusting 11 18.3
2016-Jul-27 01:21 355 4 gusting 13 18.3
2016-Jul-27 01:15 011 6 gusting 13 18.3
2016-Jul-27 01:11 344 7 gusting 11 18.3
2016-Jul-27 01:05 010 6 gusting 12 18.3
2016-Jul-27 01:00 011 6 gusting 12 18.3
2016-Jul-27 00:55 022 6 gusting 10 18.3
2016-Jul-27 00:50 019 3 gusting 9 18.3
2016-Jul-27 00:45 013 5 gusting 9 18.3
2016-Jul-27 00:40 009 3 gusting 10 18.3
2016-Jul-27 00:35 011 6 gusting 10 18.3
2016-Jul-27 00:31 346 4 gusting 10 18.3
2016-Jul-27 00:25 350 4 gusting 9 18.3
2016-Jul-27 00:20 044 4 gusting 13 18.3
2016-Jul-27 00:15 346 4 gusting 13 18.3
2016-Jul-27 00:10 355 6 gusting 9 18.3
2016-Jul-27 00:05 344 5 gusting 11 18.3
2016-Jul-27 00:00 355 6 gusting 12 18.3
2016-Jul-26 23:56 022 7 gusting 13 18.3
2016-Jul-26 23:50 347 7 gusting 13 18.3
2016-Jul-26 23:45 016 3 gusting 8 18.3
2016-Jul-26 23:41 351 5 gusting 12 18.3
2016-Jul-26 23:35 325 7 gusting 12 18.3
2016-Jul-26 23:30 013 6 gusting 12 18.3
2016-Jul-26 23:25 025 5 gusting 8 18.3
2016-Jul-26 23:20 360 6 gusting 10 18.3
2016-Jul-26 23:16 031 6 gusting 13 18.3
2016-Jul-26 23:10 343 7 gusting 13 18.3
2016-Jul-26 23:05 360 4 gusting 11 18.3
2016-Jul-26 23:00 355 7 gusting 11 18.3
2016-Jul-26 22:55 013 7 gusting 11 18.3
2016-Jul-26 22:50 333 6 gusting 10 18.3
2016-Jul-26 22:45 045 5 gusting 12 18.3
2016-Jul-26 22:40 360 6 gusting 12 18.3
2016-Jul-26 22:36 018 6 gusting 13 18.3
2016-Jul-26 22:30 342 8 gusting 13 18.3
2016-Jul-26 22:25 336 6 gusting 11 18.3
2016-Jul-26 22:21 360 6 gusting 11 18.3
2016-Jul-26 22:15 355 5 gusting 9 18.3
2016-Jul-26 22:10 019 6 gusting 11 18.3
2016-Jul-26 22:06 009 6 gusting 15 18.3
2016-Jul-26 22:00 342 7 gusting 15 18.3
2016-Jul-26 21:55 360 6 gusting 9 18.3
2016-Jul-26 21:50 360 5 gusting 8 18.3
2016-Jul-26 21:45 033 4 gusting 13 18.3
2016-Jul-26 21:40 026 6 gusting 13 18.3
2016-Jul-26 21:35 005 6 gusting 12 18.3
2016-Jul-26 21:31 005 6 gusting 12 18.3
2016-Jul-26 21:25 023 6 gusting 11 18.3
2016-Jul-26 21:20 018 7 gusting 13 18.3
2016-Jul-26 21:15 021 7 gusting 13 18.3
2016-Jul-26 21:10 355 7 gusting 14 18.3
2016-Jul-26 21:05 360 7 gusting 13 18.3
2016-Jul-26 21:00 360 6 gusting 14 18.3
2016-Jul-26 20:56 005 6 gusting 14 18.3
2016-Jul-26 20:50 011 9 gusting 13 18.3
2016-Jul-26 20:46 341 8 gusting 13 18.3
2016-Jul-26 20:40 034 7 gusting 12 18.3
2016-Jul-26 20:37 012 6 gusting 11 18.3
2016-Jul-26 20:30 355 6 gusting 12 18.9
2016-Jul-26 20:25 020 6 gusting 13 18.3
2016-Jul-26 20:21 009 8 gusting 13 18.9
2016-Jul-26 20:15 005 6 gusting 12 18.9
2016-Jul-26 20:10 013 7 gusting 12 18.9
2016-Jul-26 20:05 027 8 gusting 11 18.9
2016-Jul-26 20:00 009 6 gusting 11 18.9
2016-Jul-26 19:56 005 6 gusting 13 18.9
2016-Jul-26 19:50 351 8 gusting 13 18.9
2016-Jul-26 19:45 015 7 gusting 14 18.9
2016-Jul-26 19:40 022 7 gusting 14 18.9
2016-Jul-26 19:35 024 6 gusting 12 18.9
2016-Jul-26 19:31 013 6 gusting 12 18.9
2016-Jul-26 19:25 360 6 gusting 12 18.9
2016-Jul-26 19:20 018 6 gusting 10 18.9
2016-Jul-26 19:16 350 6 gusting 13 18.9
2016-Jul-26 19:10 342 6 gusting 12 18.9
2016-Jul-26 19:06 337 6 gusting 12 19.4
2016-Jul-26 19:00 005 6 gusting 12 18.9
2016-Jul-26 18:56 028 6 gusting 12 18.9
2016-Jul-26 18:50 005 5 gusting 13 19.4
2016-Jul-26 18:45 009 7 gusting 13 19.4
2016-Jul-26 18:40 021 7 gusting 13 19.4
2016-Jul-26 18:35 360 7 gusting 13 19.4
2016-Jul-26 18:30 021 6 gusting 13 19.4
2016-Jul-26 18:25 029 6 gusting 13 19.4
2016-Jul-26 18:20 351 7 gusting 13 19.4
2016-Jul-26 18:15 355 6 gusting 13 19.4
2016-Jul-26 18:10 332 6 gusting 13 19.4
2016-Jul-26 18:05 312 8 gusting 13 19.4
2016-Jul-26 18:00 344 9 gusting 13 19.4